Regional Weather Roundup
Issued by NWS

Home | Current Version | Previous Version | Text Only | Print | Product List | Glossary On
Versions: 1 2 3 4 5 6 7 8 9 10 11 12 13 14 15 16 17 18 19 20 21 22 23 24 25 26 27 28 29 30 31 32 33 34 35 36 37 38 39 40 41 42 43 44 45 46 47 48 49 50
781
ASUS44 KEWX 271011
RWRTX
SOUTH TEXAS REGIONAL WEATHER ROUNDUP
NATIONAL WEATHER SERVICE AUSTIN/SAN ANTONIO TX
500 AM CDT WED JUL 27 2016

NOTE: "FAIR" INDICATED FEW OR NO CLOUDS BELOW 12,000 FEET WITH NO
SIGNIFICANT WEATHER AND/OR OBSTRUCTIONS TO VISIBILITY.

* - THESE STATIONS ARE NOT NWS OR FAA STATIONS...AND ARE NOT SUBJECT
    TO NWS AND FAA QUALITY CONTROL.

TXZ171-172-183>190-271100-
TEXAS HILL COUNTRY AND EDWARDS PLATEAU

CITY           SKY/WX    TMP DP  RH WIND       PRES   REMARKS
JUNCTION       MOCLDY    72  68  87 CALM      29.98S
*LLANO         PTCLDY    73  73 100 CALM      29.99R
BURNET         CLEAR     74  70  87 S3        29.98R
*HORSESHOE BAY PTCLDY    73  71  95 CALM      29.96R
*KERRVILLE     CLOUDY    72  70  95 CALM      29.98R FOG
*FREDERICKSBRG MOCLDY    73  69  89 W3        29.98S
*ROCKSPRINGS   MOCLDY    72  70  94 CALM      30.02S FOG
*BOERNE STAGE  CLOUDY    72  70  94 CALM      29.97S
*CASTROVILLE   CLOUDY    76  74  92 CALM      29.95R
HONDO          CLOUDY    75  74  96 NE6       29.95S
*UVALDE        CLOUDY    74  73  97 NE3       29.93S FOG
DEL RIO        CLEAR     74  73  97 NE5       29.91F
LAUGHLIN AFB   PTCLDY    74  73  99 E3        29.91F
CARRIZO SPRGS  CLOUDY    77  72  83 CALM      29.90S
*EAGLE PASS    MOSUNNY   75  72  88 CALM      29.91S
$$

TXZ173-191>194-202-209-217>225-228-271100-
CENTRAL AND SOUTH CENTRAL TEXAS

CITY           SKY/WX    TMP DP  RH WIND       PRES   REMARKS
GEORGETOWN     MOCLDY    75  70  83 CALM      29.94S
AUSTIN/BERGSTM PTCLDY    76  75  97 CALM      29.93R
AUSTIN/MABRY   CLOUDY    76  74  93 CALM      29.95R
*AUSTIN/EXEC     N/A     75  75 100 CALM      29.94S FOG
*LAGO VISTA    CLOUDY    76  73  92 SW3       29.96S
SAN MARCOS     PTCLDY    73  72  94 CALM      29.95S
NEW BRAUNFELS  CLOUDY    76  74  93 CALM      29.92R
RANDOLPH AFB   CLOUDY    75  75 100 CALM      29.93R
PT SAN ANTONIO CLOUDY    76  73  90 CALM      29.92R
SAN ANTONIO    CLOUDY    77  72  84 CALM      29.93S
STINSON FIELD  CLOUDY    77  72  84 N3        29.91R
*PLEASANTON    PTCLDY    74  71  90 CALM      29.91S
*LA GRANGE       N/A     76  74  95 CALM      29.91S
*GIDDINGS      PTCLDY    74  72  94 CALM      29.97S
*GONZALES      MOCLDY    74  74  98 CALM      29.92R
$$

TXZ163>164-176>182-195>201-210>213-226-227-235-271100-
SOUTHEAST TEXAS

CITY           SKY/WX    TMP DP  RH WIND       PRES   REMARKS
COLLEGE STN    MOCLDY    76  74  93 CALM      29.94R
*BRYAN         MOCLDY    74  74 100 CALM      29.95R
*CALDWELL      CLEAR     73  73 100 CALM      29.97R
*CROCKETT      MOCLDY    73  73 100 CALM      29.97R
*BRENHAM       CLOUDY    77  76  96 CALM      29.94S
HUNTSVILLE     PTCLDY    77  74  90 S3        29.94R
CONROE         PTCLDY    73  72  96 CALM      29.93S
HOUSTON BUSH   CLOUDY    77  74  90 N3        29.92S
HOUSTON HOBBY  CLOUDY    78  76  93 S3        29.91S
*HOUSTON SW AP CLOUDY    75  74  97 CALM      29.93R
PEARLAND       CLOUDY    80  76  87 CALM      29.93S
HOUSTON HOOKS  CLOUDY    76  74  93 CALM      29.93R
ELLINGTON FLD  MOCLDY    79  75  89 CALM      29.93
SUGAR LAND     CLOUDY    76  74  93 CALM      29.92R
*HOUSTON EXEC  CLOUDY    75  75 100 CALM      29.94R
*CLEVELAND MUN NOT AVBL
*WHARTON       CLOUDY    77  74  91 CALM      29.93S
*COLUMBUS      FAIR      74  74 100 CALM      29.92S FOG
*EAGLE LAKE    SUNNY     75  75  98 CALM      29.92S FOG
$$

TXZ214>216-236>238-271100-
THE UPPER TEXAS COAST

CITY           SKY/WX    TMP DP  RH WIND       PRES   REMARKS
*ORANGE        CLOUDY    78  74  88 W3        29.94R
PORT ARTHUR    CLOUDY    78  75  90 NW5       29.92R
GALVESTON      MOCLDY    84  80  88 SW10      29.92S HX  97
ANGLETON       CLOUDY    82  76  81 S3        29.91S
*BAY CITY      CLOUDY    82  80  94 CALM      29.92R HX  92
PALACIOS       CLOUDY    85  78  80 S12       29.91R HX  96
$$

TXZ229>234-239>247-271100-
TEXAS COASTAL BEND AND RIO GRANDE PLAINS

CITY           SKY/WX    TMP DP  RH WIND       PRES   REMARKS
VICTORIA       CLOUDY    75  74  96 N3        29.91R
*BEEVILLE      CLOUDY    69  69 100 CALM      29.90R
ROCKPORT       CLOUDY    83  78  85 S10G17    29.89R HX  93
*PORT ARANSAS  CLOUDY    83  79  86 S15G21    29.89S HX  95
*PORT LAVACA   NOT AVBL
*INGLESIDE     CLOUDY    85  79  81 MISG      29.89S HX  98
CORPUS CHRISTI CLOUDY    83  79  88 S14       29.89S HX  94
CORPUS NAS       N/A    N/A N/A N/A MISG      29.89S
*ROBSTOWN      CLOUDY    82  78  89 S8        29.89S HX  91
ALICE          PTCLDY    79  77  94 SE7       29.88F
KINGSVILLE NAS CLOUDY    81  80  97 S13       29.89S HX  91
COTULLA        CLOUDY    78  73  84 E5        29.90S
*FAITH RANCH     N/A    N/A N/A N/A MISG        N/A
LAREDO         CLOUDY    78  76  93 E5        29.88S
$$

TXZ248>255-271100-
DEEP SOUTH TEXAS

CITY           SKY/WX    TMP DP  RH WIND       PRES   REMARKS
BROWNSVILLE    PTCLDY    80  77  90 S7        29.89S
PORT ISABEL    PTCLDY    82  78  88 S7        29.88F HX  91
*SOUTH PADRE     N/A     81  77  89 S9        29.89F
HARLINGEN      PTCLDY    81  77  88 S10       29.88S
*HEBBRONVILLE  CLOUDY    79  75  89 SE7       29.91S
MCALLEN        CLOUDY    84  77  79 SE12      29.89S HX  94
*WESLACO       PTCLDY    76  35  22 S7        29.88S
FALFURRIAS     PTCLDY    80  76  86 E6        29.89S
EDINBURG       PTCLDY    84  76  76 S10       29.88F HX  93
*ZAPATA        PTCLDY    78  74  88 CALM      29.87S
$$

TXZ213>215-236>238-242>244-246-247-251-254-255-271100-
CMAN STATIONS

STATION/POSITION TIME  TEMP    WIND        PRES    WAVE
                       AIR SEA DIR/SP/G            HT/PER
                 (UTC) (F)     (DEG/KT/KT) (MB)    (FT/S)
SABINE PASS      0900   83 88  240/  5/  8 1014.3
SEA RIM ST PARK  1000   74     260/ 11/ 15 1015.0
NORTH JETTY/GLS  0900   85 87                N/A
EAGLE POINT      0900   83 80  230/  5/  7 1013.1
MORGANS POINT    0900   82 88  220/  4/  5 1013.1
MISSION/ARANSAS  0900   85                 1013.0
PORT ARANSAS     1000   84 85  160/ 20/ 22 1011.9
MALAQUITE BEACH  0900   84 87  160/ 16/ 18 1012.4
BAFFIN BAY       0900   83 84  170/ 12/ 13 1012.6
PORT ISABEL      0900   83 87  160/ 11/ 13 1012.3
$$

GMZ080-GMZ150>470-271100-
OFFSHORE BUOY REPORTS

STATION/POSITION TIME  TEMP    WIND        PRES    WAVE
                       AIR SEA DIR/SP/G            HT/PER
                 (UTC) (F)     (DEG/KT/KT) (MB)    (FT/S)
20 E GALVESTON   0950   85 86  220/ 12/ 16 1012.8    3/ 6
90 E PT ARANSAS  0950   86 86  170/ 16/ 19 1012.7    4/ 6
35 NE PT MANSFLD 0850   85 85  170/ 17/ 19 1011.9    4/ 6
200 E PT ISABEL  0950   85 86  150/ 14/ 17 1013.8    3/ 6
$$




USA.gov is the U.S. government's official web portal to all federal, state and local government web resources and services.